Regional Weather Roundup
Issued by NWS

Home | Current Version | Previous Version | Text Only | Print | Product List | Glossary On
Versions: 1 2 3 4 5 6 7 8 9 10 11 12 13 14 15 16 17 18 19 20 21 22 23 24 25 26 27 28 29 30 31 32 33 34 35 36 37 38 39 40 41 42 43 44 45 46 47 48 49 50
000
ASUS43 KDTX 261510
RWRMI
MICHIGAN HOURLY REGIONAL WEATHER ROUNDUP
NATIONAL WEATHER SERVICE DETROIT/PONTIAC MI
1100 AM EDT FRI AUG 26 2016

NOTE: "FAIR" INDICATES FEW OR NO CLOUDS BELOW 12,000 FEET WITH NO
SIGNIFICANT WEATHER AND/OR OBSTRUCTION TO VISIBILITY.

MIZ047>049-052>055-059>063-066>070-074>076-081>083-261600-
SOUTHEAST LOWER MICHIGAN

CITY           SKY/WX    TMP DP  RH WIND       PRES   REMARKS
ADRIAN         MOSUNNY   77  66  68 N6        30.18R
ALMA           MOSUNNY   74  64  69 W7        30.16R
ANN ARBOR      SUNNY     77  63  61 W6        30.16S
BAD AXE        CLOUDY    73  64  74 W3        30.14R
CARO           CLOUDY    72  65  81 W5        30.14S
DETROIT CITY   SUNNY     77  64  64 VRB3      30.15S
DETROIT        PTSUNNY   77  65  66 NW5       30.16S
FLINT          MOSUNNY   76  64  66 W6        30.15S
GROSSE ILE     MOSUNNY   76  65  68 NW3       30.15S
HILLSDALE      MOSUNNY   75  63  67 CALM      30.18S
HOWELL         MOSUNNY   75  63  66 CALM      30.17S

CITY           SKY/WX    TMP DP  RH WIND       PRES   REMARKS
JACKSON        MOSUNNY   75  62  64 N3        30.17S
LAMBERTVILLE   MOSUNNY   79  62  57 NW3       30.18R
LANSING        PTSUNNY   74  62  66 VRB3      30.17R
LAPEER         FAIR      74  64  69 CALM      30.16S
MASON          MOSUNNY   73  63  71 CALM      30.17R
MONROE         PTSUNNY   76  67  73 CALM      30.15S
MT. CLEMENS    PTSUNNY   77  64  63 NW5       30.13R
PONTIAC        PTSUNNY   75  63  66 W5        30.15S
PORT HURON     SUNNY     73  64  73 CALM      30.15R
TRI CITIES     MOSUNNY   72  65  78 VRB3      30.15S
MIDLAND        FAIR      71  63  75 CALM      30.14S
TROY           SUNNY     78  61  55 W3        30.17R
SAGINAW HB     MOSUNNY   73  63  68 W5        30.14S
$$
MIZ043>046-050>051-056>058-064>065-071>073-077>080-261600-
SOUTHWEST LOWER MICHIGAN

CITY           SKY/WX    TMP DP  RH WIND       PRES   REMARKS
BATTLE CREEK   PTSUNNY   71  64  78 S3        30.19R
BENTON HARBOR  SUNNY     75  64  68 CALM      30.18R
BIG RAPIDS     MOSUNNY   72  60  65 W9        30.16R
COLDWATER      PTSUNNY   74  65  74 CALM      30.18S
FREMONT        FAIR      72  56  56 W5        30.17R
HOLLAND        MOSUNNY   74  63  68 CALM      30.18R
GRAND RAPIDS   PTSUNNY   73  60  63 NW3       30.18R
IONIA          FAIR      71  62  73 W3        30.16R
KALAMAZOO      CLOUDY    75  62  64 CALM      30.18R
LUDINGTON      SUNNY     70  61  72 W6        30.16R
MARSHALL       MOSUNNY   73  64  73 CALM      30.18R
MOUNT PLEASANT MOSUNNY   73  63  70 SW5       30.15R
MUSKEGON       MOSUNNY   75  59  57 NW7       30.17R
SOUTH HAVEN    SUNNY     77  64  63 NW3       30.17S
$$
MIZ016>042-261600-
NORTHERN LOWER MICHIGAN

CITY           SKY/WX    TMP DP  RH WIND       PRES   REMARKS
ALPENA         MOSUNNY   73  56  54 VRB7      30.11R
BEAVER ISLAND  MOSUNNY   69  60  73 W9        30.12R
BELLAIRE       PTSUNNY   71  58  65 SW7       30.13R
CADILLAC       MOSUNNY   70  58  64 SW9       30.15R
CHARLEVOIX     MOSUNNY   70  60  70 W12       30.15R
FRANKFORT      MOSUNNY   71  59  67 W7        30.14R
GAYLORD        MOSUNNY   70  55  59 W8G18     30.13R
GRAYLING       PTSUNNY   71  59  65 SW6       30.14S
HARBOR SPRINGS SUNNY     70  59  68 W8        30.11S
HOUGHTON LAKE  SUNNY     70  58  65 W7        30.15R
MANISTEE       SUNNY     71  60  68 W13       30.15R
OSCODA         SUNNY     74  56  52 NW7       30.11R
PELLSTON       PTSUNNY   71  57  61 W6        30.11R
ROGERS CITY    MOSUNNY   72  58  60 W7        30.11S
TRAVERSE CITY  PTSUNNY   72  57  59 W8        30.12R
$$
MIZ007>008-015-261600-
EASTERN UPPER MICHIGAN

CITY           SKY/WX    TMP DP  RH WIND       PRES   REMARKS
KINROSS        MOSUNNY   68  59  73 W7        30.10R
MACKINAC ISLAN MOSUNNY   68  59  73 W9        30.10S
NEWBERRY       PTSUNNY   68  59  73 W9        30.10S
S. S. MARIE    MOSUNNY   69  60  73 W8        30.08R
MUNISING         N/A     67  60  78 N8        30.10
$$
MIZ004>006-011>014-085-261600-
CENTRAL UPPER MICHIGAN

CITY           SKY/WX    TMP DP  RH WIND       PRES   REMARKS
MANISTIQUE     CLOUDY    67  58  73 CALM      30.11R
ESCANABA       MOSUNNY   68  57  68 NW8       30.12R
MENOMINEE      SUNNY    N/A N/A N/A VRB6      30.15R
SAWYER-GWINN   CLOUDY    63  55  77 W7        30.13R
$$
MIZ001>003-009>011-084-261600-
WESTERN UPPER MICHIGAN

CITY           SKY/WX    TMP DP  RH WIND       PRES   REMARKS
IRON MOUNTAIN  MOSUNNY   64  54  69 W9        30.13S
HOUGHTON       PTSUNNY   64  53  67 NW12      30.12R
COPPER HARBOR    N/A     61  56  83 NE8       30.11R
IRONWOOD       MOSUNNY   63  54  72 NW10      30.17R
$$

ABBREVIATIONS USED IN REMARKS
   TC - TEMPERATURE IN CELSIUS
  WCI - WIND CHILL INDEX
   HX - HEAT INDEX
  VSB - VISIBILITY




USA.gov is the U.S. government's official web portal to all federal, state and local government web resources and services.